{"data":{"norad_id":62598,"intl_designator":"2025-008M","name":"STARLINK-11258 [DTC]","alt_names":[],"object_type":"PAYLOAD","status":"ACTIVE","operator":null,"country":"US","launch_date":"2025-01-13","launch_site_code":"AFETR","launch_vehicle":null,"mission":null,"orbit_class":"UNKNOWN","rcs_meters":null,"size_class":null,"mass_kg":null,"dimensions":null,"purposes":["comms"],"wikipedia_slug":null,"has_3d_model":false,"image_url":null,"decayed_at":null,"tle_current":{"epoch":"2026-05-25T01:01:47.919072Z","epoch_age_seconds":68585,"freshness":"FRESH","line1":"1 62598U 25008M   26145.04291573  .00181900  00000+0  13887-2 0  9991","line2":"2 62598  43.0011  25.8368 0002017 265.6534  94.4103 15.70867065 79297","mean_motion":15.70867065,"eccentricity":0.0002017,"inclination_deg":43.0011,"raan_deg":25.8368,"arg_perigee_deg":265.6534,"mean_anomaly_deg":94.4103,"bstar":0.0013887,"rev_number":7929,"period_min":91.669119054323,"perigee_km":355.05934615977,"apogee_km":357.77606552811,"semimajor_km":6734.5547058439,"source":"CELESTRAK","updated_at":"2026-05-25T13:38:19.735323Z"}}}